Location: El Chorro
(10.0985°N, 67.3542°W)
Time: 18:12:46
(UTC+00:00)

Cosmos 1833 Rocket - Pass Details

Date: 15 November 2025
Orbit: 829 x 840 km, 71.0° (Epoch: 06 December)

Event Time Altitude Azimuth Distance (km) Brightness Sun altitude
Rises 22:29:08 0° 352° (N) 3,381 5.7 -6.7°
Reaches altitude 10° 22:31:39 10° 358° (N) 2,446 5.0 -7.3°
Maximum altitude 22:37:05 52° 74° (ENE) 1,034 2.8 -8.6°
Drops below altitude 10° 22:42:31 10° 149° (SSE) 2,442 5.0 -9.9°
Sets 22:45:01 0° 154° (SSE) 3,375 5.7 -10.5°
